Location: Dugenta
(41.1333°N, 14.4500°E)
Time: 14:36:38
(UTC+00:00)

Cosmos 962 Rocket - Pass Details

Date: 03 March 2021
Orbit: 951 x 999 km, 83.0° (Epoch: 13 April)

Event Time Altitude Azimuth Distance (km) Brightness Sun altitude
Rises 18:06:09 0° 179° (S) 3,632 7.4 -14.1°
Reaches altitude 10° 18:08:38 10° 177° (S) 2,696 6.7 -14.6°
Maximum altitude 18:14:46 72° 94° (E) 1,023 4.4 -15.7°
Drops below altitude 10° 18:21:02 10° 11° (NNE) 2,747 6.8 -16.9°
Sets 18:23:35 0° 10° (N) 3,706 7.5 -17.4°
